Station 42060 - Caribbean Valley - 63 NM WSW of Montserrat Image indicating link to RSS feed of recent meteorological observations for station 42060


Conditions at 42060 as of
(9:10 pm AST on 07/17/2024)
0110 GMT on 07/18/2024:
     

Click on the graph icon in the table below to see a time series plot of the last five days of that observation.

5-day plot - Wind Direction Wind Direction (WDIR):ENE ( 70 deg true )
5-day plot - Wind Speed Wind Speed (WSPD): 15.5 kts
5-day plot - Wind Gust Wind Gust (GST): 19.4 kts
5-day plot - Atmospheric Pressure Atmospheric Pressure (PRES):30.03 in
5-day plot - Air Temperature Air Temperature (ATMP): 85.3 °F
5-day plot - Water Temperature Water Temperature (WTMP): 85.6 °F
5-day plot - Dew Point Dew Point (DEWP): 80.6 °F
5-day plot - Heat Index Heat Index (HEAT):100.6 °F
5-day plot - Wind Speed at 10 Meters Wind Speed at 10 meters (WSPD10M): 17.5 kts
5-day plot - Wind Speed at 20 Meters Wind Speed at 20 meters (WSPD20M): 17.5 kts
5-day plot -  Wind Speed, Wind Gust and Atmospheric Pressure Combined plot of Wind Speed, Gust, and Air Pressure
Supplemental Measurements
Highest 1-minute Wind Speed
Time (AST)5-day plot - 1-Minute Wind Speed WSPD 5-day plot - 1-Minute Wind Direction WDIR
9:08 pm 17.5 kts-
Previous observations
TIME
(AST)
5-day plot - Wind Direction
WDIR
 
5-day plot - Wind Speed
WSPD
kts
5-day plot - Wind Gust
GST
kts
5-day plot - Wave Height
WVHT
ft
5-day plot - Dominant Wave Period
DPD
sec
5-day plot - Average Wave Period
APD
sec
5-day plot - Mean Wave Direction
MWD
 
5-day plot - Atmospheric Pressure
PRES
in
5-day plot - Pressure Tendency
PTDY
in
5-day plot - Air Temperature
ATMP
°F
5-day plot - Water Temperature
WTMP
°F
5-day plot - Dew Point
DEWP
°F
5-day plot - Salinity
SAL
psu
5-day plot - Visibility
VIS
nmi
5-day plot - Tide (above MLLW)
TIDE
ft
2024-07-17 09:00 pmENE 15.5 17.5----30.02+0.04 85.5 85.6 80.8---
2024-07-17 08:50 pmENE 15.5 19.4 3.6 54.3 E30.02- 85.5 85.8 80.8---
2024-07-17 08:40 pm E 15.5 19.4 3.6-4.3 E30.02- 85.5 85.8 81.0---
2024-07-17 08:30 pmENE 15.5 17.5----30.02- 85.5 85.8 80.8---
2024-07-17 08:20 pm E 15.5 19.4 3.3 64.5ESE30.02- 85.5 85.8 81.0---
2024-07-17 08:10 pm E 15.5 17.5 3.3-4.5ESE30.01- 85.5 85.8 81.3---
2024-07-17 08:00 pm E 13.6 17.5----30.01+0.04 85.3 85.8 81.1---
2024-07-17 07:50 pm E 13.6 15.5 3.3 64.5ESE30.01- 85.5 85.8 81.5---
2024-07-17 07:40 pm E 13.6 17.5----30.01- 85.5 85.8 81.1---
2024-07-17 07:10 pm E 11.7 15.5 3.0-4.7 SE30.00- 85.3 85.8 81.0---
2024-07-17 07:00 pm E 11.7 13.6----30.00+0.03 85.1 85.8 81.1---
2024-07-17 06:50 pmENE 9.7 11.7 3.3 54.6ESE30.00- 84.9 85.8 81.1---
2024-07-17 06:40 pm E 9.7 11.7----30.00- 84.9 86.0 81.1---
2024-07-17 06:30 pm E 9.7 11.7----29.99- 84.9 86.0 81.0---
2024-07-17 06:20 pm E 9.7 11.7 3.3 64.8 SE29.99- 84.9 86.0 80.8---
2024-07-17 06:10 pm E 9.7 11.7 3.3-4.8 SE29.99- 84.9 86.0 80.8---
2024-07-17 06:00 pm E 9.7 11.7----29.99+0.00 84.7 86.0 80.6---
2024-07-17 05:50 pm E 9.7 11.7 3.3 64.7ESE29.98- 84.7 86.0 80.8---
2024-07-17 05:40 pm E 9.7 11.7----29.98- 84.7 86.0 81.0---
2024-07-17 05:30 pm E 9.7 11.7----29.98- 84.7 86.0 80.8---
2024-07-17 05:20 pm E 11.7 13.6 3.3 64.7ESE29.97- 84.9 86.0 80.8---
2024-07-17 05:10 pm E 9.7 13.6 3.3-4.7ESE29.97- 84.7 86.0 80.6---
2024-07-17 05:00 pm E 9.7 13.6----29.97-0.04 84.7 86.2 81.0---
2024-07-17 04:50 pm E 7.8 11.7 3.3 64.7ESE29.97- 84.6 86.2 80.6---
2024-07-17 04:40 pm E 7.8 9.7----29.97- 83.7 86.2 79.9---
2024-07-17 04:30 pmENE 5.8 5.8----29.97- 82.6 86.2 79.3---
2024-07-17 04:20 pm E 3.9 5.8 3.6 64.7 SE29.98- 81.7 86.0 79.0---
2024-07-17 04:10 pmENE 9.7 13.6 3.6-4.7 SE29.98- 82.2- 79.7---
2024-07-17 04:00 pm N 9.7 11.7----29.98-0.06 83.1 86.2 79.7---
2024-07-17 03:50 pm N 9.7 11.7 3.3 64.7 SE29.98- 82.8 86.2 79.2---
2024-07-17 03:40 pm NE 11.7 13.6----29.98- 83.8 86.2 79.7---
2024-07-17 03:30 pmENE 7.8 11.7----29.98- 85.1 86.2 79.9---
2024-07-17 03:20 pmENE 7.8 9.7 3.3 64.6 SE29.98- 84.9 86.2 80.1---
2024-07-17 03:10 pm E 9.7 11.7----29.99- 85.1 86.2 80.1---
2024-07-17 03:00 pm E 7.8 9.7----29.99-0.04 85.5 86.0 79.5---
2024-07-17 02:50 pm E 7.8 11.7 3.3 64.7 SE29.99- 85.5 86.0 79.3---
2024-07-17 02:40 pm E 9.7 11.7 3.3-4.7 SE29.99- 85.3 86.0 79.2---
2024-07-17 02:30 pm E 9.7 11.7----30.00- 85.5 86.2 79.7---
2024-07-17 02:20 pm E 9.7 11.7 3.3 64.7ESE30.00- 85.5 86.0 79.5---
2024-07-17 02:10 pm E 9.7 11.7 3.3-4.7ESE30.01- 85.5 86.0 79.2---
2024-07-17 02:00 pm E 9.7 13.6----30.01-0.04 85.3 86.0 79.3---
2024-07-17 01:50 pm E 9.7 11.7 3.3 54.8ESE30.01- 85.3 86.0 79.7---
2024-07-17 01:40 pm E 9.7 11.7----30.01- 85.3 86.0 80.1---
2024-07-17 01:30 pm E 9.7 11.7----30.02- 85.3 86.0 79.9---
2024-07-17 01:20 pm E 9.7 11.7 3.3 64.7 SE30.02- 85.1 86.0 79.5---
2024-07-17 01:10 pm E 7.8 9.7 3.3-4.7 SE30.03- 85.3 85.8 79.3---
2024-07-17 01:00 pm E 9.7 11.7----30.03-0.01 85.3 85.8 79.0---
2024-07-17 12:50 pm E 9.7 11.7 3.6 64.7ESE30.03- 85.5 85.8 78.3---
2024-07-17 12:40 pm E 9.7 11.7 3.6-4.7ESE30.03- 85.5 85.8 77.7---
2024-07-17 12:30 pm E 9.7 13.6----30.03- 85.5 85.8 77.4---
2024-07-17 12:20 pm E 9.7 11.7 3.6 64.6ESE30.03- 85.5 85.6 77.7---
2024-07-17 12:10 pm E 9.7 11.7 3.6-4.6ESE30.03- 85.3 85.6 77.5---
2024-07-17 12:00 pm E 9.7 11.7----30.04+0.01 85.5 85.6 77.4---
2024-07-17 11:50 am E 11.7 13.6 3.6 64.7ESE30.03- 85.5 85.6 77.5---
2024-07-17 11:40 am E 9.7 11.7----30.04- 85.5 85.6 77.5---
2024-07-17 11:30 am E 9.7 13.6----30.04- 85.5 85.5 78.1---
2024-07-17 11:20 am E 11.7 15.5 3.6 64.6ESE30.04- 85.3 85.5 77.9---
2024-07-17 11:10 am E 11.7 13.6 3.6-4.6ESE30.04- 85.3 85.5 78.4---
2024-07-17 11:00 am E 11.7 15.5----30.04+0.03 85.3 85.5 78.3---
2024-07-17 10:50 am E 11.7 13.6 3.6 64.6ESE30.04- 85.3 85.5 78.3---
2024-07-17 10:40 am E 11.7 15.5----30.05- 85.3 85.5 78.1---
2024-07-17 10:30 am E 11.7 13.6----30.05- 85.5 85.5 78.3---
2024-07-17 10:20 am E 11.7 13.6 3.6 64.7ESE30.05- 85.3 85.5 78.4---
2024-07-17 10:10 am E 11.7 13.6----30.04- 85.3 85.5 77.9---
2024-07-17 10:00 am E 11.7 15.5----30.04+0.04 85.1 85.5 78.4---
2024-07-17 09:50 am E 11.7 15.5 3.9 64.7 SE30.04- 85.3 85.5 78.3---
2024-07-17 09:40 am E 11.7 13.6 3.9-4.7 SE30.04- 85.1 85.5 77.9---
2024-07-17 09:30 am E 11.7 15.5----30.04- 85.1 85.5 78.1---
2024-07-17 09:20 am E 13.6 17.5 3.6 54.5ESE30.03- 85.1 85.5 77.9---
2024-07-17 09:10 am E 11.7 13.6 3.6-4.5ESE30.03- 85.1 85.5 78.3---
2024-07-17 09:00 am E 11.7 15.5----30.03+0.05 84.9 85.5 77.9---
2024-07-17 08:50 am E 11.7 13.6 3.6 64.6ESE30.03- 84.9 85.5 78.6---
2024-07-17 08:40 am E 11.7 15.5----30.03- 84.9 85.5 78.6---
2024-07-17 08:30 am E 11.7 15.5----30.02- 84.9 85.5 79.0---
2024-07-17 08:20 am E 11.7 15.5 3.9 64.5 SE30.02- 84.9 85.3 78.6---
2024-07-17 08:10 am E 11.7 13.6 3.9-4.5 SE30.02- 84.9 85.3 78.8---
2024-07-17 08:00 am E 11.7 13.6----30.02+0.05 84.7 85.3 78.6---
2024-07-17 07:50 am E 13.6 15.5 3.9 64.6ESE30.02- 84.7 85.3 78.4---
2024-07-17 07:40 am E 13.6 15.5----30.01- 84.6 85.3 78.8---
2024-07-17 07:30 am E 13.6 15.5----30.01- 84.7 85.3 79.2---
2024-07-17 07:20 am E 13.6 15.5 3.9 54.5ESE30.01- 84.6 85.3 78.4---
2024-07-17 07:10 am E 13.6 15.5 3.9-4.5ESE30.01- 84.6 85.3 78.1---
2024-07-17 07:00 am E 13.6 17.5----30.00+0.04 84.6 85.3 78.1---
2024-07-17 06:50 am E 13.6 15.5 3.9 54.4ESE30.00- 84.6 85.3 78.3---
2024-07-17 06:40 am E 13.6 17.5 3.9-4.4ESE30.00- 84.4 85.3 78.3---
2024-07-17 06:30 am E 13.6 17.5----29.99- 84.6 85.3 78.3---
2024-07-17 06:20 am E 13.6 17.5 3.9 64.5ESE29.99- 84.4- 78.3---
2024-07-17 06:10 am E 13.6 17.5 3.9-4.5ESE29.98- 84.4 85.3 78.3---
2024-07-17 06:00 am E 13.6 17.5----29.98+0.01 84.6 85.5 78.3---
2024-07-17 05:50 am E 15.5 17.5 4.3 54.6 E29.97- 84.4 85.3 78.1---
2024-07-17 05:40 am E 15.5 17.5----29.97- 84.4 85.3 78.4---
2024-07-17 05:30 am E 15.5 17.5----29.97- 84.4 85.5 78.4---
2024-07-17 05:20 amESE 13.6 17.5 3.9 54.5ESE29.97- 84.4 85.5 78.8---
2024-07-17 05:10 am E 15.5 19.4 3.9-4.5ESE29.97- 84.4 85.5 78.8---
2024-07-17 05:00 am E 13.6 17.5----29.97-0.01 84.6 85.3 79.2---
2024-07-17 04:50 am E 13.6 17.5 3.9 54.6 E29.97- 84.6 85.3 79.2---
2024-07-17 04:40 am E 13.6 17.5----29.96- 84.6 85.5 79.2---
2024-07-17 04:30 am E 15.5 19.4----29.96- 84.6 85.5 79.2---
2024-07-17 04:20 am E 15.5 17.5 3.9 64.6ESE29.96- 84.6 85.5 79.2---
2024-07-17 04:10 am E 15.5 17.5 3.9-4.6ESE29.96- 84.6 85.5 79.5---
2024-07-17 04:00 am E 15.5 19.4----29.96-0.03 84.6 85.5 79.3---
2024-07-17 03:50 am E 15.5 19.4 3.9 64.6ESE29.97- 84.4 85.5 79.0---
2024-07-17 03:40 am E 15.5 19.4----29.97- 84.4 85.5 79.2---
2024-07-17 03:30 am E 13.6 17.5----29.97- 84.4 85.5 79.7---
2024-07-17 03:20 am E 13.6 15.5 3.9 64.6ESE29.97- 84.6 85.5 79.3---
2024-07-17 03:10 am E 13.6 17.5 3.9-4.6ESE29.98- 84.4 85.5 79.3---
2024-07-17 03:00 am E 13.6 17.5----29.97-0.04 84.6 85.5 79.7---
2024-07-17 02:50 am E 13.6 15.5 3.9 64.5ESE29.97- 84.6 85.5 79.0---
2024-07-17 02:40 am E 13.6 15.5 3.9-4.5ESE29.98- 84.6 85.5 79.5---
2024-07-17 02:30 am E 13.6 15.5----29.98- 84.6 85.5 79.5---
2024-07-17 02:20 am E 13.6 17.5 3.9 64.6ESE29.98- 84.4 85.5 79.5---
2024-07-17 02:10 am E 13.6 17.5 3.9-4.6ESE29.98- 84.4 85.5 79.7---
2024-07-17 02:00 am E 13.6 17.5----29.98-0.04 84.6 85.5 79.9---
2024-07-17 01:50 am E 13.6 15.5 3.9 64.4 E29.98- 84.7 85.5 79.5---
2024-07-17 01:40 am E 13.6 17.5----29.98- 84.7 85.5 79.2---
2024-07-17 01:30 am E 13.6 15.5----29.99- 84.7 85.5 79.5---
2024-07-17 01:20 am E 11.7 15.5 3.9 64.6 E29.99- 84.7 85.5 79.5---
2024-07-17 01:10 am E 13.6 15.5----29.99- 84.9 85.5 79.7---
2024-07-17 01:00 am E 13.6 15.5----29.99-0.04 84.9 85.5 79.9---
2024-07-17 12:50 am E 13.6 17.5 3.9 54.5 E30.00- 84.9 85.5 79.3---
2024-07-17 12:40 am E 13.6 17.5 3.9-4.5 E30.00- 84.9 85.5 79.7---
2024-07-17 12:30 am E 13.6 17.5----30.01- 84.9 85.5 79.7---
2024-07-17 12:20 am E 13.6 17.5 3.9 64.7 E30.01- 84.9 85.5 79.5---
2024-07-17 12:10 am E 15.5 17.5 3.9-4.7 E30.01- 84.9 85.5 79.5---
2024-07-17 12:00 am E 15.5 17.5----30.01-0.01 85.1 85.5 79.5---
2024-07-16 11:50 pm E 15.5 19.4 3.6 54.6 E30.01- 85.1 85.6 79.2---
2024-07-16 11:40 pm E 15.5 17.5----30.02- 85.3 85.6 79.9---
2024-07-16 11:30 pm E 15.5 17.5----30.02- 85.3 85.6 80.2---
2024-07-16 11:20 pm E 11.7 17.5 3.3 64.5ESE30.02- 85.3 85.6 79.9---
2024-07-16 11:10 pm E 11.7 13.6 3.3-4.5ESE30.02- 85.1 85.6 80.2---
2024-07-16 11:00 pm E 11.7 13.6----30.03+0.01 84.9 85.6 80.6---
2024-07-16 10:50 pm E 13.6 15.5 3.6 64.6ESE30.03- 84.7 85.6 80.6---
2024-07-16 10:40 pm E 13.6 17.5 3.6-4.6ESE30.03- 84.7 85.6 80.4---
2024-07-16 10:30 pm E 11.7 13.6----30.03- 84.6 85.6 80.1---
2024-07-16 10:20 pm E 11.7 15.5 3.6 64.6ESE30.03- 84.7 85.6 80.4---
2024-07-16 10:10 pm E 13.6 15.5 3.6-4.6ESE30.03- 84.9 85.6 80.4---
2024-07-16 10:00 pmENE 11.7 13.6----30.03+0.04 84.7 85.6 79.9---
2024-07-16 09:50 pmENE 11.7 15.5 3.3 54.5ESE30.03- 84.4 85.6 79.9---
2024-07-16 09:40 pmENE 13.6 15.5----30.03- 84.4 85.6 79.5---
2024-07-16 09:30 pm E 11.7 15.5----30.03- 84.7 85.6 80.1---
2024-07-16 09:20 pmENE 11.7 15.5 3.3 54.8ESE30.03- 84.6 85.6 79.7---
2024-07-16 09:10 pmENE 11.7 13.6 3.3-4.8ESE30.03- 84.7 85.6 80.1---
2024-07-16 09:00 pmENE 11.7 13.6----30.03+0.05 84.9 85.6 79.5---
2024-07-16 08:50 pmENE 9.7 13.6 3.6 64.9ESE30.02- 84.7 85.6 79.2---

Detailed Wave Summary
for 42060 as of
(8:40 pm AST on 07/17/2024)
0040 GMT on 07/18/2024:

These wave data are displayed in rounded times.

     

Click on the graph icon in the table below to see a time series plot of the last five days of that observation.

5-day plot - Significant Wave Height Significant Wave Height (WVHT): 3.6 ft
5-day plot - Swell Height Swell Height (SwH): 1.3 ft
5-day plot - Swell Period Swell Period (SwP): 7.7 sec
5-day plot - Swell Direction Swell Direction (SwD):ENE
5-day plot - Wind Wave Height Wind Wave Height (WWH): 3.3 ft
5-day plot - Wind Wave Period Wind Wave Period (WWP): 5.3 sec
5-day plot - Wind Wave Direction Wind Wave Direction (WWD): E
5-day plot - Wave Steepness Wave Steepness (STEEPNESS):VERY_STEEP
5-day plot - Average Wave Period Average Wave Period (APD): 4.3 sec
Previous observations
TIME
(AST)
5-day plot - Wave Height
WVHT
ft
5-day plot - Swell Height
SwH
ft
5-day plot - Swell Period
SwP
sec
5-day plot - Swell Direction
SwD
 
5-day plot - Wind Wave Height
WWH
ft
5-day plot - Wind Wave Period
WWP
sec
5-day plot - Wind Wave Direction
WWD
 
5-day plot - Wave Steepness
STEEPNESS
 
5-day plot - Average Wave Period
APD
sec
2024-07-17 08:10 pm 3.3 1.0 8.3ENE 3.3 5.9 ESE STEEP 4.5
2024-07-17 07:40 pm 3.3 1.3 7.1ENE 3.0 5.6 ESE STEEP 4.5
2024-07-17 07:10 pm 3.0 1.6 7.7ENE 2.6 5.9 SE STEEP 4.7
2024-07-17 06:40 pm 3.3 2.6 5.3ESE 2.0 4.5 ENE STEEP 4.6
2024-07-17 06:10 pm 3.3 3.0 5.9 SE 1.6 4.3 E STEEP 4.8
2024-07-17 05:40 pm 3.3 2.6 5.9ESE 2.0 4.5 E STEEP 4.7
2024-07-17 05:10 pm 3.3 2.3 6.2ESE 2.0 4.5 ESE STEEP 4.7
2024-07-17 04:40 pm 3.3 3.0 6.2ESE 1.3 4.0 ESE STEEP 4.7
2024-07-17 04:10 pm 3.6 3.0 5.6 SE 1.6 3.8 ESE STEEP 4.7
2024-07-17 03:40 pm 3.3 2.3 5.6 SE 2.6 4.5 ESE STEEP 4.7
2024-07-17 03:10 pm 3.3 2.6 5.6 SE 1.6 4.0 ESE STEEP 4.6
2024-07-17 02:40 pm 3.3 3.0 5.9 SE 1.6 4.2 ESE STEEP 4.7
2024-07-17 02:10 pm 3.3 2.6 6.2ESE 2.3 4.5 ESE STEEP 4.7
2024-07-17 01:40 pm 3.3 3.0 5.0ESE 2.0 4.3 ENEVERY_STEEP 4.8
2024-07-17 01:10 pm 3.3 3.0 5.9 SE 1.6 4.0 ESE STEEP 4.7
2024-07-17 12:40 pm 3.6 3.0 5.6ESE 2.0 3.6 ESE STEEP 4.7
2024-07-17 12:10 pm 3.6 3.0 5.6ESE 2.3 4.3 E STEEP 4.6
2024-07-17 11:40 am 3.6 2.6 6.2ESE 2.3 4.8 E STEEP 4.7
2024-07-17 11:10 am 3.6 2.6 5.6ESE 2.6 4.8 ESE STEEP 4.6
2024-07-17 10:40 am 3.6 2.0 6.7ESE 3.0 5.6 ESE STEEP 4.6
2024-07-17 10:10 am 3.6 2.6 5.9ESE 3.0 4.0 ESE STEEP 4.7
2024-07-17 09:40 am 3.9 2.3 5.9 SE 3.0 5.3 E STEEP 4.7
2024-07-17 09:10 am 3.6 2.0 9.1 E 3.0 5.3 ESEVERY_STEEP 4.5
2024-07-17 08:40 am 3.6 2.0 10.0 E 3.0 5.6 ESE STEEP 4.6
2024-07-17 08:10 am 3.9 2.3 6.2 SE 3.3 5.6 E STEEP 4.5
2024-07-17 07:40 am 3.9 1.6 6.7ESE 3.6 5.9 ESE STEEP 4.6
2024-07-17 07:10 am 3.9 1.6 7.1ESE 3.3 5.3 ESEVERY_STEEP 4.5
2024-07-17 06:40 am 3.9 1.3 8.3 E 3.6 5.3 ESEVERY_STEEP 4.4
2024-07-17 06:10 am 3.9 1.6 9.1 E 3.6 5.6 ESEVERY_STEEP 4.5
2024-07-17 05:40 am 4.3 1.6 9.1 E 3.9 5.3 EVERY_STEEP 4.6
2024-07-17 05:10 am 3.9 1.3 9.1 E 3.6 5.3 ESEVERY_STEEP 4.5
2024-07-17 04:40 am 3.9 1.6 8.3 E 3.6 5.0 EVERY_STEEP 4.6
2024-07-17 04:10 am 3.9 1.3 7.7 E 3.6 5.9 ESE STEEP 4.6
2024-07-17 03:40 am 3.9 1.6 9.1 E 3.6 5.9 ESE STEEP 4.6
2024-07-17 03:10 am 3.9 1.6 10.0 E 3.6 5.9 ESE STEEP 4.6
2024-07-17 02:40 am 3.9 1.6 9.1 E 3.3 5.6 ESE STEEP 4.5
2024-07-17 02:10 am 3.9 1.3 8.3ENE 3.6 5.6 ESEVERY_STEEP 4.6
2024-07-17 01:40 am 3.9 1.6 9.1 E 3.6 5.6 EVERY_STEEP 4.4
2024-07-17 01:10 am 3.9 1.6 9.1 E 3.6 5.6 EVERY_STEEP 4.6
2024-07-17 12:40 am 3.9 1.6 9.1 E 3.6 5.3 EVERY_STEEP 4.5
2024-07-17 12:10 am 3.9 1.3 9.1 E 3.9 5.6 EVERY_STEEP 4.7
2024-07-16 11:40 pm 3.6 1.6 8.3ESE 3.3 5.3 EVERY_STEEP 4.6
2024-07-16 11:10 pm 3.3 1.6 9.1 E 2.6 5.6 ESE STEEP 4.5
2024-07-16 10:40 pm 3.6 1.6 9.1 E 3.3 5.6 ESE STEEP 4.6
2024-07-16 10:10 pm 3.6 1.6 9.1 E 3.0 5.6 ESE STEEP 4.6
2024-07-16 09:40 pm 3.3 1.6 8.3 E 3.0 5.0 ESEVERY_STEEP 4.5
2024-07-16 09:10 pm 3.3 2.0 9.1 E 3.0 5.3 ESEVERY_STEEP 4.8

Plot of wave energy versus frequency (and period)